Regional Weather Roundup
Issued by NWS State College, PA

Home | Current Version | Previous Version | Text Only | Print | Product List | Glossary On
Versions: 1 2 3 4 5 6 7 8 9 10 11 12 13 14 15 16 17 18 19 20 21 22 23 24 25 26 27 28 29 30 31 32 33 34 35 36 37 38 39 40 41 42 43 44 45 46 47 48 49 50
000
ASUS41 KCTP 180603
RWRCTP

REGIONAL WEATHER ROUNDUP
NATIONAL WEATHER SERVICE STATE COLLEGE PA
100 AM EST SUN FEB 18 2018

Note: "fair" indicates few or no clouds below 12,000 feet with no
significant weather and/or obstructions to visibility.

* = STATION THAT DOES NOT REPORT PRECIPITATION /E.G. RAIN...SNOW...ETC/
    THUNDER OR FOG.

PAZ002>004-007>009-013>016-020>023-029>032-180700-
WESTERN PENNSYLVANIA

CITY           SKY/WX    TMP DP  RH WIND       PRES   REMARKS
ERIE           LGT SNOW  32  27  81 SW8       30.03R
MEADVILLE      LGT SNOW  28  28 100 W7        30.00R FOG
FRANKLIN*      LGT SNOW  28  27  96 W7        29.99R FOG
NEW CASTLE     LGT SNOW  31  31 100 SW3       30.03R FOG
BEAVER COUNTY  NOT AVBL
BUTLER*        LGT SNOW  31  31 100 W6        30.02R FOG
PITTSBURGH INT LGT SNOW  33  32  96 SW5       30.02R FOG
PITTSBURGH     LGT SNOW  32  30  92 W6        30.02R FOG
INDIANA*       CLOUDY    32  32 100 W8        30.03R FOG
LATROBE        CLOUDY    32  32 100 SW7       30.04R FOG
WASHINGTON CO* LGT SNOW N/A N/A N/A SW5       30.07R
$$

PAZ004>006-010>012-017>019-024>028-033>037-041-042-045-046-049>053-180700-
CENTRAL PENNSYLVANIA

CITY           SKY/WX    TMP DP  RH WIND       PRES   REMARKS
BRADFORD       CLOUDY    27  25  92 NW7       29.91R
DUBOIS         LGT SNOW  29  26  89 W8        29.94R FOG
CLEARFIELD     LGT SNOW  29  28  96 SW5       29.95R FOG
JOHNSTOWN      LGT SNOW  30  28  92 W12G18    29.93R FOG
ALTOONA        CLOUDY    30  28  92 CALM      29.96R
STATE COLLEGE  LGT SNOW  29  29  99 SW3       29.95F
WILLIAMSPORT   FLURRIES  30  29  96 SE3       29.97F
SELINSGROVE    CLOUDY    31  28  89 CALM      30.00F
FT INDIANTOWN  CLOUDY    29  29 100 CALM      29.99F FOG
CAPITAL CITY   CLOUDY    32  30  92 W3        30.01S FOG
HARRISBURG     CLOUDY    32  30  92 VRB3      30.00S
YORK           CLOUDY    33  32  96 SW6       30.00S
$$

PAZ038>040-043-044-047-048-054-055-060>062-067>071-180700-
EASTERN PENNSYLVANIA

CITY           SKY/WX    TMP DP  RH WIND       PRES   REMARKS
SCRANTON       CLOUDY    30  29  96 SW3       29.94F FOG
MOUNT POCONO   NOT AVBL
ALLENTOWN      CLOUDY    33  30  88 W3        29.99S FOG
QUAKERTOWN*    CLOUDY    32  32 100 CALM      29.98F FOG
READING        CLOUDY    31  31 100 CALM      29.99S FOG
LANCASTER      CLOUDY    31  31 100 NW3       30.01S FOG
COATESVILLE    FOG       32 N/A N/A CALM      29.99F VSB 1/4
POTTSTOWN      CLOUDY    31  31 100 CALM      30.00F FOG
BLUE BELL      CLOUDY    32  32 100 CALM      30.00S
DOYLESTOWN     CLOUDY    32  31  96 CALM      29.97F
WILLOW GROVE   NOT AVBL
NORTH PHILA    CLOUDY    35  32  88 CALM      30.00F
PHILADELPHIA   CLOUDY    34  32  92 NW7       30.01F
$$




USA.gov is the U.S. government's official web portal to all federal, state and local government web resources and services.